Location: Brodeslavy
(49.9527°N, 13.5567°E)
Time: 04:58:49
(UTC+00:00)

Cosmos 540 Rocket - Pass Details

Date: 17 June 2025
Orbit: 736 x 748 km, 74.1° (Epoch: 12 July)

Event Time Altitude Azimuth Distance (km) Brightness Sun altitude
Rises 20:50:20 0° 340° (NNW) 3,196 8.6 -10.6°
Reaches altitude 10° 20:52:51 10° 348° (NNW) 2,266 7.2 -10.9°
Maximum altitude 20:57:39 39° 57° (ENE) 1,103 4.4 -11.2°
Enters shadow 21:01:55 13° 124° (SE) 2,068 5.2 -11.6°
